START_TIME,STEP,MOV.,M15,t_acc.,M20,t_acc.
1979-07-14 15:01:08.170 ,0,0,0.,24.0,0.,24.0
1979-07-14 15:01:32.170 ,0,0,0.,24.0,0.,24.0
1979-07-14 15:01:56.170 ,3,1,0.,24.0,0.,24.0
1979-07-14 15:02:20.170 ,3,0,0.,24.0,0.,24.0
1979-07-14 15:02:44.170 ,4,1,0.,24.0,0.,24.0
1979-07-14 15:03:08.170 ,4,0,0.,24.0,0.,24.0
1979-07-14 15:03:32.170 ,5,1,0.,24.0,0.,24.0
1979-07-14 15:03:56.170 ,5,0,0.,24.0,0.,24.0
1979-07-14 15:04:20.170 ,6,1,0.,24.0,0.,24.0
1979-07-14 15:04:44.170 ,6,0,0.,24.0,0.,24.0
1979-07-14 15:05:08.170 ,7,1,0.,24.0,0.,24.0
1979-07-14 15:05:32.170 ,7,0,0.,24.0,0.,24.0
1979-07-14 15:05:56.170 ,7,1,0.,24.0,0.,24.0
1979-07-14 15:06:20.170 ,7,0,0.,24.0,0.,24.0
1979-07-14 15:06:44.170 ,6,1,0.,24.0,0.,24.0
1979-07-14 15:07:08.170 ,6,0,0.,24.0,0.,24.0
1979-07-14 15:07:32.170 ,5,1,0.,24.0,0.,24.0
1979-07-14 15:07:56.170 ,5,0,0.,24.0,0.,24.0
1979-07-14 15:08:20.170 ,4,1,0.,24.0,0.,24.0
1979-07-14 15:09:32.170 ,0,0,0.,24.0,0.,24.0
1979-07-14 15:09:56.170 ,2,1,0.,24.0,0.,24.0
1979-07-14 15:10:20.170 ,2,0,0.,24.0,0.,24.0
1979-07-14 15:10:44.170 ,1,1,0.,24.0,0.,24.0
1979-07-14 15:11:08.170 ,1,0,0.,24.0,0.,24.0
1979-07-14 15:11:32.170 ,0,1,0.,24.0,0.,24.0
1979-07-14 15:11:56.170 ,0,0,0.,24.0,0.,24.0
1979-07-14 15:12:20.170 ,0,1,0.,24.0,0.,24.0
1979-07-14 15:12:44.170 ,0,0,0.,24.0,0.,24.0
1979-07-14 15:13:08.170 ,1,1,0.,24.0,0.,24.0
1979-07-14 15:13:32.170 ,1,0,0.,24.0,0.,24.0
1979-07-14 15:13:56.170 ,2,1,0.,24.0,0.,24.0
1979-07-14 15:14:20.170 ,2,0,0.,24.0,0.,24.0
1979-07-14 15:14:44.170 ,3,1,0.,24.0,0.,24.0
1979-07-14 15:15:08.170 ,3,0,0.,24.0,0.,24.0
1979-07-14 15:15:32.170 ,4,1,0.,24.0,0.,24.0
1979-07-14 15:15:56.170 ,4,0,0.,24.0,0.,24.0
1979-07-14 15:16:20.170 ,5,1,0.,24.0,0.,24.0
1979-07-14 15:16:44.170 ,5,0,0.,24.0,0.,24.0
1979-07-14 15:17:08.170 ,6,1,0.,24.0,0.,24.0
1979-07-14 15:17:32.170 ,6,0,0.,24.0,0.,24.0
1979-07-14 15:17:56.170 ,7,1,0.,24.0,0.,24.0
1979-07-14 15:18:20.170 ,7,0,0.,24.0,0.,24.0
1979-07-14 15:18:44.170 ,7,1,0.,24.0,0.,24.0
1979-07-14 15:19:08.170 ,7,0,0.,24.0,0.,24.0
1979-07-14 15:19:32.170 ,6,1,0.,24.0,0.,24.0
1979-07-14 15:19:56.170 ,6,0,0.,24.0,0.,24.0
1979-07-14 15:20:20.170 ,5,1,0.,24.0,0.,24.0
1979-07-14 15:20:44.170 ,5,0,0.,24.0,0.,24.0
1979-07-14 15:21:08.170 ,4,1,0.,24.0,0.,24.0
1979-07-14 15:21:32.170 ,4,0,0.,24.0,0.,24.0
1979-07-14 15:21:56.170 ,3,1,0.,24.0,0.,24.0
1979-07-14 15:22:20.170 ,3,0,0.,24.0,0.,24.0
1979-07-14 15:22:44.170 ,2,1,0.,24.0,0.,24.0
1979-07-14 15:23:08.170 ,2,0,0.,24.0,0.,24.0
1979-07-14 15:23:32.170 ,1,1,0.,24.0,0.,24.0
1979-07-14 15:23:56.170 ,1,0,0.,24.0,0.,24.0
1979-07-14 15:24:20.170 ,0,1,0.,24.0,0.,24.0
1979-07-14 15:24:44.170 ,0,0,0.,24.0,0.,24.0
1979-07-14 15:25:56.170 ,0,0,0.,24.0,0.,24.0
1979-07-14 15:26:20.170 ,0,0,0.,24.0,0.,24.0
1979-07-14 15:26:44.170 ,2,1,0.,24.0,0.,24.0
1979-07-14 15:27:08.170 ,2,0,0.,24.0,0.,24.0
1979-07-14 15:27:32.170 ,3,1,0.,24.0,0.,24.0
1979-07-14 15:27:56.170 ,3,0,0.,24.0,0.,24.0
1979-07-14 15:28:20.170 ,4,1,0.,24.0,0.,24.0
1979-07-14 15:28:44.170 ,4,0,0.,24.0,0.,24.0
1979-07-14 15:29:08.170 ,5,1,0.,24.0,0.,24.0
1979-07-14 15:29:32.170 ,5,0,0.,24.0,0.,24.0
1979-07-14 15:29:56.170 ,6,1,0.,24.0,0.,24.0
1979-07-14 15:30:20.170 ,6,0,0.,24.0,0.,24.0
1979-07-14 15:30:44.170 ,7,0,0.,24.0,0.,24.0
1979-07-14 15:31:08.170 ,7,0,0.,24.0,0.,24.0
1979-07-14 15:31:32.170 ,3,1,0.,24.0,0.,24.0
1979-07-14 15:31:56.170 ,0,1,0.,24.0,0.,24.0
1979-07-14 15:32:20.170 ,4,1,0.,24.0,0.,24.0
1979-07-14 15:32:44.170 ,7,1,0.,24.0,0.,24.0
1979-07-14 15:33:08.170 ,3,1,0.,24.0,0.,24.0
1979-07-14 15:33:32.170 ,0,1,0.,24.0,0.,24.0
1979-07-14 15:33:56.170 ,4,1,0.,24.0,0.,24.0
1979-07-14 15:34:20.170 ,7,1,0.,24.0,0.,24.0
1979-07-14 15:34:44.170 ,3,1,0.,24.0,0.,24.0
1979-07-14 15:35:08.170 ,0,1,0.,24.0,0.,24.0
1979-07-14 15:35:32.170 ,4,1,0.,24.0,0.,24.0
1979-07-14 15:35:56.170 ,7,1,0.,24.0,0.,24.0
1979-07-14 15:36:20.170 ,3,1,0.,24.0,0.,24.0
1979-07-14 15:36:44.170 ,0,1,0.,24.0,0.,24.0
1979-07-14 15:37:08.170 ,4,1,0.,24.0,0.,24.0
1979-07-14 15:37:32.170 ,7,1,0.,24.0,0.,24.0
1979-07-14 15:37:56.170 ,3,1,0.,24.0,0.,24.0
1979-07-14 15:38:20.170 ,0,1,0.,24.0,0.,24.0
1979-07-14 15:38:44.170 ,4,1,0.,24.0,0.,24.0
1979-07-14 15:39:08.170 ,7,1,0.,24.0,0.,24.0
1979-07-14 15:39:32.170 ,3,1,0.,24.0,0.,24.0
1979-07-14 15:39:56.170 ,0,1,0.,24.0,0.,24.0
1979-07-14 15:40:20.170 ,4,1,0.,24.0,0.,24.0
1979-07-14 15:40:44.170 ,7,1,0.,24.0,0.,24.0
1979-07-14 15:41:08.170 ,3,1,0.,24.0,0.,24.0
1979-07-14 15:41:32.170 ,0,1,0.,24.0,0.,24.0
1979-07-14 15:41:56.170 ,0,0,0.,24.0,0.,24.0
1979-07-14 15:42:20.170 ,0,0,0.,24.0,0.,24.0
1979-07-14 15:42:44.170 ,5,1,0.,24.0,0.,24.0
1979-07-14 15:43:08.170 ,5,0,0.,24.0,0.,24.0
1979-07-14 15:43:32.170 ,4,1,0.,24.0,0.,24.0
1979-07-14 15:43:56.170 ,4,0,0.,24.0,0.,24.0
1979-07-14 15:44:20.170 ,3,1,0.,24.0,0.,24.0
1979-07-14 15:44:44.170 ,3,0,0.,24.0,0.,24.0
1979-07-14 15:45:08.170 ,0,0,,0,,0
1979-07-14 15:45:32.170 ,0,0,,0,,0
1979-07-14 15:46:44.170 ,0,0,0.,24.0,0.,24.0
1979-07-14 15:47:08.170 ,0,0,0.,24.0,0.,24.0
1979-07-14 15:47:32.170 ,0,1,0.,24.0,0.,24.0
1979-07-14 15:47:56.170 ,0,0,0.,24.0,0.,24.0
1979-07-14 15:48:20.170 ,1,1,0.,24.0,0.,24.0
1979-07-14 15:48:44.170 ,1,0,0.,24.0,0.,24.0
1979-07-14 15:49:08.170 ,2,1,0.,24.0,0.,24.0
1979-07-14 15:49:32.170 ,2,0,0.,24.0,0.,24.0
1979-07-14 15:49:56.170 ,3,1,0.,24.0,0.,24.0
1979-07-14 15:50:20.170 ,3,0,0.,24.0,0.,24.0
1979-07-14 15:50:44.170 ,4,1,0.,24.0,0.,24.0
1979-07-14 15:51:08.170 ,4,0,0.,24.0,0.,24.0
1979-07-14 15:51:32.170 ,5,1,0.,24.0,0.,24.0
1979-07-14 15:51:56.170 ,5,0,0.,24.0,0.,24.0
1979-07-14 15:52:20.170 ,6,1,0.,24.0,0.,24.0
1979-07-14 15:52:44.170 ,6,0,0.,24.0,0.,24.0
1979-07-14 15:53:08.170 ,7,1,0.,24.0,0.,24.0
1979-07-14 15:53:32.170 ,7,0,0.,24.0,0.,24.0
1979-07-14 15:53:56.170 ,7,1,0.,24.0,0.,24.0
1979-07-14 15:54:20.170 ,7,0,0.,24.0,0.,24.0
1979-07-14 15:54:44.170 ,6,1,0.,24.0,0.,24.0
1979-07-14 15:55:08.170 ,6,0,0.,24.0,0.,24.0
1979-07-14 15:55:32.170 ,5,1,0.,24.0,0.,24.0
1979-07-14 15:55:56.170 ,5,0,0.,24.0,0.,24.0
1979-07-14 15:56:20.170 ,4,1,0.,24.0,0.,24.0
1979-07-14 15:56:44.170 ,4,0,0.,24.0,0.,24.0
1979-07-14 15:57:08.170 ,3,1,0.,24.0,0.,24.0
1979-07-14 15:57:32.170 ,3,0,0.,24.0,0.,24.0
1979-07-14 15:57:56.170 ,2,1,0.,24.0,0.,24.0
1979-07-14 15:58:20.170 ,2,0,0.,24.0,0.,24.0
1979-07-14 15:58:44.170 ,1,1,0.,24.0,0.,24.0
1979-07-14 15:59:08.170 ,1,0,0.,24.0,0.,24.0
1979-07-14 15:59:32.170 ,0,1,0.,24.0,0.,24.0
1979-07-14 15:59:56.170 ,0,0,0.,24.0,0.,24.0
1979-07-14 16:00:20.170 ,0,1,0.,24.0,0.,24.0
1979-07-14 16:00:44.170 ,0,0,0.,24.0,0.,24.0
1979-07-14 16:01:08.170 ,1,1,0.,24.0,0.,24.0
1979-07-14 16:01:32.170 ,1,0,0.,24.0,0.,24.0
1979-07-14 16:01:56.170 ,2,1,0.,24.0,0.,24.0
1979-07-14 16:02:20.170 ,2,0,0.,24.0,0.,24.0
1979-07-14 16:02:44.170 ,3,1,0.,24.0,0.,24.0
1979-07-14 16:03:08.170 ,3,0,0.,24.0,0.,24.0
1979-07-14 16:03:32.170 ,4,1,0.,24.0,0.,24.0
1979-07-14 16:03:56.170 ,4,0,0.,24.0,0.,24.0
1979-07-14 16:04:20.170 ,5,1,0.,24.0,0.,24.0
1979-07-14 16:04:44.170 ,5,0,0.,24.0,0.,24.0
1979-07-14 16:05:08.170 ,6,1,0.,24.0,0.,24.0
1979-07-14 16:05:32.170 ,6,0,0.,24.0,0.,24.0
1979-07-14 16:05:56.170 ,7,1,0.,24.0,0.,24.0
1979-07-14 16:06:20.170 ,7,0,0.,24.0,0.,24.0
1979-07-14 16:06:44.170 ,7,1,0.,24.0,0.,24.0
1979-07-14 16:07:08.170 ,7,0,0.,24.0,0.,24.0
1979-07-14 16:07:32.170 ,6,1,0.,24.0,0.,24.0
1979-07-14 16:07:56.170 ,6,0,0.,24.0,0.,24.0
1979-07-14 16:08:20.170 ,5,1,0.,24.0,0.,24.0
1979-07-14 16:08:44.170 ,5,0,0.,24.0,0.,24.0
1979-07-14 16:09:08.170 ,4,1,0.,24.0,0.,24.0
1979-07-14 16:09:32.170 ,4,0,0.,24.0,0.,24.0
1979-07-14 16:09:56.170 ,3,1,0.,24.0,0.,24.0
1979-07-14 16:10:20.170 ,3,0,0.,24.0,0.,24.0
1979-07-14 16:10:44.170 ,2,1,0.,24.0,0.,24.0
1979-07-14 16:11:08.170 ,2,0,0.,24.0,0.,24.0
1979-07-14 16:11:32.170 ,1,1,0.,24.0,0.,24.0
1979-07-14 16:11:56.170 ,1,0,0.,24.0,0.,24.0
1979-07-14 16:12:20.170 ,0,1,0.,24.0,0.,24.0
1979-07-14 16:12:44.170 ,0,0,0.,24.0,0.,24.0
1979-07-14 16:13:08.170 ,0,1,0.,24.0,0.,24.0
1979-07-14 16:13:32.170 ,0,0,0.,24.0,0.,24.0
1979-07-14 16:13:56.170 ,1,1,0.,24.0,0.,24.0
1979-07-14 16:14:20.170 ,1,0,0.,24.0,0.,24.0
1979-07-14 16:14:44.170 ,2,1,0.,24.0,0.,24.0
1979-07-14 16:15:08.170 ,2,0,0.,24.0,0.,24.0
1979-07-14 16:15:32.170 ,3,1,0.,24.0,0.,24.0
1979-07-14 16:15:56.170 ,3,0,0.,24.0,0.,24.0
1979-07-14 16:16:20.170 ,4,1,0.,24.0,0.,24.0
1979-07-14 16:16:44.170 ,4,0,0.,24.0,0.,24.0
1979-07-14 16:17:08.170 ,5,1,0.,24.0,0.,24.0
1979-07-14 16:17:32.170 ,5,0,0.,24.0,0.,24.0
1979-07-14 16:17:56.170 ,6,1,0.,24.0,0.,24.0
1979-07-14 16:18:20.170 ,6,0,0.,24.0,0.,24.0
1979-07-14 16:18:44.170 ,7,0,0.,24.0,0.,24.0
1979-07-14 16:19:08.170 ,7,0,0.,24.0,0.,24.0
1979-07-14 16:19:32.170 ,3,1,0.,24.0,0.,24.0
1979-07-14 16:19:56.170 ,0,1,0.,24.0,0.,24.0
1979-07-14 16:20:20.170 ,4,1,0.,24.0,0.,24.0
1979-07-14 16:20:44.170 ,7,1,0.,24.0,0.,24.0
1979-07-14 16:21:08.170 ,3,1,1.,24.0,0.,24.0
1979-07-14 16:21:32.170 ,0,1,0.,24.0,0.,24.0
1979-07-14 16:21:56.170 ,4,1,0.,24.0,0.,24.0
1979-07-14 16:22:20.170 ,7,1,0.,24.0,0.,24.0
1979-07-14 16:22:44.170 ,3,1,0.,24.0,0.,24.0
1979-07-14 16:23:08.170 ,0,1,0.,24.0,0.,24.0
1979-07-14 16:23:32.170 ,4,1,0.,24.0,0.,24.0
1979-07-14 16:23:56.170 ,7,1,0.,24.0,0.,24.0
1979-07-14 16:24:20.170 ,3,1,0.,24.0,0.,24.0
1979-07-14 16:24:44.170 ,0,1,0.,24.0,0.,24.0
1979-07-14 16:25:08.170 ,4,1,0.,24.0,0.,24.0
1979-07-14 16:25:32.170 ,7,1,0.,24.0,0.,24.0
1979-07-14 16:25:56.170 ,3,1,0.,24.0,0.,24.0
1979-07-14 16:26:20.170 ,0,1,0.,24.0,0.,24.0
1979-07-14 16:26:44.170 ,4,1,0.,24.0,0.,24.0
1979-07-14 16:27:08.170 ,7,1,0.,24.0,0.,24.0
1979-07-14 16:27:32.170 ,3,1,0.,24.0,0.,24.0
1979-07-14 16:27:56.170 ,0,1,0.,24.0,0.,24.0
1979-07-14 16:28:20.170 ,4,1,0.,24.0,0.,24.0
1979-07-14 16:28:44.170 ,7,1,0.,24.0,0.,24.0
1979-07-14 16:29:08.170 ,3,1,0.,24.0,0.,24.0
1979-07-14 16:29:32.170 ,0,1,0.,24.0,0.,24.0
1979-07-14 16:29:56.170 ,0,0,0.,24.0,0.,24.0
1979-07-14 16:30:20.170 ,0,0,0.,24.0,0.,24.0
1979-07-14 16:30:44.170 ,5,1,0.,24.0,0.,24.0
1979-07-14 16:31:08.170 ,5,0,0.,24.0,0.,24.0
1979-07-14 16:31:32.170 ,4,1,0.,24.0,0.,24.0
1979-07-14 16:31:56.170 ,4,0,0.,24.0,0.,24.0
1979-07-14 16:32:20.170 ,3,1,0.,24.0,0.,24.0
1979-07-14 16:32:44.170 ,3,0,0.,24.0,0.,24.0
1979-07-14 16:33:08.170 ,2,1,0.,24.0,0.,24.0
1979-07-14 16:33:32.170 ,2,0,0.,24.0,0.,24.0
1979-07-14 16:33:56.170 ,1,1,0.,24.0,0.,24.0
1979-07-14 16:34:20.170 ,1,0,0.,24.0,0.,24.0
1979-07-14 16:34:44.170 ,0,1,0.,24.0,0.,24.0
1979-07-14 16:35:08.170 ,0,0,0.,24.0,0.,24.0
1979-07-14 16:35:32.170 ,0,1,0.,24.0,0.,24.0
1979-07-14 16:35:56.170 ,0,0,0.,24.0,0.,24.0
1979-07-14 16:36:20.170 ,1,1,0.,24.0,0.,24.0
1979-07-14 16:36:44.170 ,1,0,0.,24.0,0.,24.0
1979-07-14 16:37:08.170 ,2,1,0.,24.0,0.,24.0
1979-07-14 16:37:32.170 ,2,0,0.,24.0,0.,24.0
1979-07-14 16:37:56.170 ,3,1,0.,24.0,0.,24.0
1979-07-14 16:38:20.170 ,3,0,0.,24.0,0.,24.0
1979-07-14 16:38:44.170 ,4,1,0.,24.0,0.,24.0
1979-07-14 16:39:08.170 ,4,0,0.,24.0,0.,24.0
1979-07-14 16:39:32.170 ,5,1,0.,24.0,0.,24.0
1979-07-14 16:39:56.170 ,5,0,0.,24.0,0.,24.0
1979-07-14 16:40:20.170 ,6,1,0.,24.0,0.,24.0
1979-07-14 16:40:44.170 ,6,0,0.,24.0,0.,24.0
1979-07-14 16:41:08.170 ,7,1,0.,24.0,0.,24.0
1979-07-14 16:41:32.170 ,7,0,0.,24.0,0.,24.0
1979-07-14 16:41:56.170 ,7,1,0.,24.0,0.,24.0
1979-07-14 16:42:20.170 ,7,0,0.,24.0,0.,24.0
1979-07-14 16:43:32.170 ,0,0,0.,24.0,0.,24.0
1979-07-14 16:43:56.170 ,0,0,0.,24.0,0.,24.0
1979-07-14 16:44:20.170 ,4,1,0.,24.0,0.,24.0
1979-07-14 16:44:44.170 ,4,0,0.,24.0,0.,24.0
1979-07-14 16:45:08.170 ,3,1,0.,24.0,0.,24.0
1979-07-14 16:45:32.170 ,3,0,0.,24.0,0.,24.0
1979-07-14 16:45:56.170 ,2,1,0.,24.0,0.,24.0
1979-07-14 16:46:20.170 ,2,0,0.,24.0,0.,24.0
1979-07-14 16:46:44.170 ,1,1,0.,24.0,0.,24.0
1979-07-14 16:47:08.170 ,1,0,0.,24.0,0.,24.0
1979-07-14 16:47:32.170 ,0,1,0.,24.0,0.,24.0
1979-07-14 16:47:56.170 ,0,0,0.,24.0,0.,24.0
1979-07-14 16:48:20.170 ,0,1,0.,24.0,0.,24.0
1979-07-14 16:48:44.170 ,0,0,0.,24.0,0.,24.0
1979-07-14 16:49:08.170 ,1,1,0.,24.0,0.,24.0
1979-07-14 16:49:32.170 ,1,0,1.,24.0,0.,24.0
1979-07-14 16:49:56.170 ,2,1,0.,24.0,0.,24.0
1979-07-14 16:50:20.170 ,2,0,0.,24.0,0.,24.0
1979-07-14 16:50:44.170 ,3,1,0.,24.0,0.,24.0
1979-07-14 16:51:08.170 ,3,0,0.,24.0,0.,24.0
1979-07-14 16:51:32.170 ,4,1,0.,24.0,0.,24.0
1979-07-14 16:51:56.170 ,4,0,0.,24.0,0.,24.0
1979-07-14 16:52:20.160 ,5,1,0.,24.0,0.,24.0
1979-07-14 16:52:44.160 ,5,0,0.,24.0,0.,24.0
1979-07-14 16:53:08.160 ,0,0,,0,,0
1979-07-14 16:53:32.160 ,0,0,0.,24.0,0.,24.0
1979-07-14 16:53:56.160 ,7,1,0.,24.0,0.,24.0
1979-07-14 16:54:20.160 ,7,0,0.,24.0,0.,24.0
1979-07-14 16:54:44.160 ,7,1,0.,24.0,0.,24.0
1979-07-14 16:55:08.160 ,7,0,0.,24.0,0.,24.0
1979-07-14 16:55:32.160 ,6,1,0.,24.0,0.,24.0
1979-07-14 16:55:56.160 ,6,0,0.,24.0,0.,24.0
1979-07-14 16:56:20.160 ,5,1,0.,24.0,0.,24.0
1979-07-14 16:56:44.160 ,5,0,0.,24.0,0.,24.0
1979-07-14 16:57:08.160 ,4,1,0.,24.0,0.,24.0
1979-07-14 16:57:32.160 ,4,0,0.,24.0,0.,24.0
1979-07-14 16:57:56.160 ,3,1,0.,24.0,0.,24.0
1979-07-14 16:58:20.160 ,3,0,0.,24.0,0.,24.0
1979-07-14 16:58:44.160 ,2,1,0.,24.0,0.,24.0
1979-07-14 16:59:08.160 ,2,0,0.,24.0,0.,24.0
1979-07-14 16:59:32.160 ,1,1,0.,24.0,0.,24.0
1979-07-14 16:59:56.160 ,1,0,0.,24.0,0.,24.0
1979-07-14 17:00:20.160 ,0,1,0.,24.0,0.,24.0
1979-07-14 17:00:44.170 ,0,0,0.,24.0,0.,24.0
1979-07-14 17:01:08.170 ,0,1,0.,24.0,0.,24.0
1979-07-14 17:01:32.170 ,0,0,0.,24.0,0.,24.0
1979-07-14 17:01:56.170 ,1,1,0.,24.0,0.,24.0
1979-07-14 17:02:20.170 ,0,0,0.,24.0,0.,24.0
1979-07-14 17:02:44.170 ,2,1,0.,24.0,0.,24.0
1979-07-14 17:03:08.170 ,2,0,0.,24.0,0.,24.0
1979-07-14 17:03:32.170 ,3,1,0.,24.0,0.,24.0
1979-07-14 17:03:56.170 ,3,0,0.,24.0,0.,24.0
1979-07-14 17:04:20.170 ,4,1,0.,24.0,0.,24.0
1979-07-14 17:04:44.170 ,4,0,0.,24.0,0.,24.0
1979-07-14 17:05:08.170 ,5,1,0.,24.0,0.,24.0
1979-07-14 17:05:32.170 ,5,0,0.,24.0,0.,24.0
1979-07-14 17:05:56.170 ,6,1,0.,24.0,0.,24.0
1979-07-14 17:06:20.170 ,6,0,0.,24.0,0.,24.0
1979-07-14 17:06:44.170 ,7,0,0.,24.0,0.,24.0
1979-07-14 17:07:08.170 ,7,0,0.,24.0,0.,24.0
1979-07-14 17:07:32.170 ,3,1,0.,24.0,0.,24.0
1979-07-14 17:07:56.170 ,0,1,0.,24.0,0.,24.0
1979-07-14 17:08:20.170 ,4,1,0.,24.0,0.,24.0
1979-07-14 17:08:44.170 ,7,1,0.,24.0,0.,24.0
1979-07-14 17:09:08.170 ,3,1,0.,24.0,0.,24.0
1979-07-14 17:09:32.170 ,0,1,0.,24.0,0.,24.0
1979-07-14 17:09:56.170 ,4,1,0.,24.0,0.,24.0
1979-07-14 17:10:20.170 ,7,1,0.,24.0,0.,24.0
1979-07-14 17:10:44.170 ,3,1,0.,24.0,0.,24.0
1979-07-14 17:11:08.170 ,0,1,0.,24.0,0.,24.0
1979-07-14 17:11:32.170 ,4,1,0.,24.0,0.,24.0
1979-07-14 17:11:56.170 ,7,1,0.,24.0,0.,24.0
1979-07-14 17:12:20.170 ,3,1,0.,24.0,0.,24.0
1979-07-14 17:12:44.170 ,0,1,0.,24.0,0.,24.0
1979-07-14 17:13:08.170 ,4,1,0.,24.0,0.,24.0
1979-07-14 17:13:32.170 ,7,1,0.,24.0,0.,24.0
1979-07-14 17:13:56.170 ,3,1,0.,24.0,0.,24.0
1979-07-14 17:14:20.170 ,0,1,0.,24.0,0.,24.0
1979-07-14 17:14:44.170 ,4,1,0.,24.0,0.,24.0
1979-07-14 17:15:08.170 ,7,1,0.,24.0,0.,24.0
1979-07-14 17:15:32.170 ,3,1,0.,24.0,0.,24.0
1979-07-14 17:15:56.170 ,0,1,0.,24.0,0.,24.0
1979-07-14 17:16:20.170 ,4,1,0.,24.0,0.,24.0
1979-07-14 17:16:44.170 ,7,1,0.,24.0,0.,24.0
1979-07-14 17:17:08.170 ,3,1,0.,24.0,0.,24.0
1979-07-14 17:17:32.170 ,0,1,0.,24.0,0.,24.0
1979-07-14 17:17:56.170 ,0,0,0.,24.0,0.,24.0
1979-07-14 17:18:20.170 ,0,0,0.,24.0,0.,24.0
1979-07-14 17:18:44.160 ,5,1,0.,24.0,0.,24.0
1979-07-14 17:19:08.160 ,5,0,0.,24.0,0.,24.0
1979-07-14 17:19:32.160 ,4,1,0.,24.0,0.,24.0
1979-07-14 17:19:56.160 ,4,0,0.,24.0,0.,24.0
1979-07-14 17:20:20.160 ,3,1,0.,24.0,0.,24.0
1979-07-14 17:20:44.160 ,3,0,0.,24.0,0.,24.0
1979-07-14 17:21:08.160 ,2,1,0.,24.0,0.,24.0
1979-07-14 17:21:32.160 ,2,0,0.,24.0,0.,24.0
1979-07-14 17:21:56.160 ,1,1,0.,24.0,0.,24.0
1979-07-14 17:22:20.160 ,1,0,0.,24.0,0.,24.0
1979-07-14 17:22:44.160 ,0,1,0.,24.0,0.,24.0
1979-07-14 17:23:08.160 ,0,0,0.,24.0,0.,24.0
1979-07-14 17:23:32.160 ,0,1,0.,24.0,0.,24.0
1979-07-14 17:23:56.160 ,0,0,0.,24.0,0.,24.0
1979-07-14 17:24:20.160 ,1,1,0.,24.0,0.,24.0
1979-07-14 17:24:44.160 ,1,0,0.,24.0,0.,24.0
1979-07-14 17:25:08.160 ,2,1,0.,24.0,0.,24.0
1979-07-14 17:25:32.160 ,2,0,0.,24.0,0.,24.0
1979-07-14 17:25:56.160 ,3,1,0.,24.0,0.,24.0
1979-07-14 17:26:20.160 ,3,0,0.,24.0,0.,24.0
1979-07-14 17:26:44.160 ,4,1,0.,24.0,0.,24.0
1979-07-14 17:27:08.160 ,4,0,0.,24.0,0.,24.0
1979-07-14 17:27:32.160 ,5,1,0.,24.0,0.,24.0
1979-07-14 17:27:56.160 ,5,0,0.,24.0,0.,24.0
1979-07-14 17:28:20.160 ,6,1,0.,24.0,0.,24.0
1979-07-14 17:28:44.160 ,6,0,0.,24.0,0.,24.0
1979-07-14 17:29:08.160 ,7,1,0.,24.0,0.,24.0
1979-07-14 17:29:32.160 ,7,0,0.,24.0,0.,24.0
1979-07-14 17:29:56.160 ,7,1,0.,24.0,0.,24.0
1979-07-14 17:30:20.160 ,7,0,0.,24.0,0.,24.0
1979-07-14 17:30:44.160 ,6,1,0.,24.0,0.,24.0
1979-07-14 17:31:08.160 ,6,0,0.,24.0,0.,24.0
1979-07-14 17:31:32.160 ,5,1,0.,24.0,0.,24.0
1979-07-14 17:31:56.160 ,5,0,0.,24.0,0.,24.0
1979-07-14 17:32:20.160 ,4,1,0.,24.0,0.,24.0
1979-07-14 17:32:44.160 ,4,0,0.,24.0,0.,24.0
1979-07-14 17:33:08.160 ,3,1,0.,24.0,0.,24.0
1979-07-14 17:33:32.160 ,3,0,0.,24.0,0.,24.0
1979-07-14 17:33:56.160 ,2,1,0.,24.0,0.,24.0
1979-07-14 17:34:20.160 ,2,0,0.,24.0,0.,24.0
1979-07-14 17:34:44.160 ,1,1,0.,24.0,0.,24.0
1979-07-14 17:35:08.160 ,1,0,0.,24.0,0.,24.0
1979-07-14 17:35:32.160 ,0,1,0.,24.0,0.,24.0
1979-07-14 17:35:56.160 ,0,0,0.,24.0,0.,24.0
1979-07-14 17:36:20.160 ,0,1,0.,24.0,0.,24.0
1979-07-14 17:36:44.160 ,0,0,0.,24.0,0.,24.0
1979-07-14 17:37:08.160 ,1,1,0.,24.0,0.,24.0
1979-07-14 17:37:32.160 ,0,0,0.,24.0,0.,24.0
1979-07-14 17:37:56.160 ,2,1,0.,24.0,0.,24.0
1979-07-14 17:38:20.160 ,2,0,0.,24.0,0.,24.0
1979-07-14 17:38:44.160 ,3,1,0.,24.0,0.,24.0
1979-07-14 17:39:08.160 ,3,0,0.,24.0,0.,24.0
1979-07-14 17:39:32.160 ,4,1,0.,24.0,0.,24.0
1979-07-14 17:39:56.160 ,4,0,0.,24.0,0.,24.0
1979-07-14 17:40:20.160 ,5,1,0.,24.0,0.,24.0
1979-07-14 17:40:44.160 ,5,0,0.,24.0,0.,24.0
1979-07-14 17:41:08.160 ,6,1,0.,24.0,0.,24.0
1979-07-14 17:41:32.160 ,6,0,0.,24.0,0.,24.0
1979-07-14 17:41:56.160 ,7,1,0.,24.0,0.,24.0
1979-07-14 17:42:20.160 ,7,0,0.,24.0,0.,24.0
1979-07-14 17:43:32.160 ,0,0,0.,24.0,0.,24.0
1979-07-14 17:43:56.160 ,0,0,0.,24.0,0.,24.0
1979-07-14 17:44:20.160 ,5,1,0.,24.0,0.,24.0
1979-07-14 17:44:44.160 ,5,0,0.,24.0,0.,24.0
1979-07-14 17:45:08.160 ,4,1,0.,24.0,0.,24.0
1979-07-14 17:45:32.160 ,0,0,,0,,0
1979-07-14 17:45:35.160 ,0,0,0.,24.0,0.,24.0
1979-07-14 17:45:56.160 ,3,1,0.,24.0,0.,24.0
1979-07-14 17:46:20.160 ,3,0,0.,24.0,0.,24.0
1979-07-14 17:46:44.160 ,2,1,0.,24.0,0.,24.0
1979-07-14 17:47:08.160 ,2,0,0.,24.0,0.,24.0
1979-07-14 17:47:32.160 ,1,1,0.,24.0,0.,24.0
1979-07-14 17:47:56.160 ,1,0,0.,24.0,0.,24.0
1979-07-14 17:48:20.160 ,0,1,0.,24.0,0.,24.0
1979-07-14 17:48:44.160 ,0,0,0.,24.0,0.,24.0
1979-07-14 17:49:08.160 ,0,1,0.,24.0,0.,24.0
1979-07-14 17:49:32.160 ,0,0,0.,24.0,0.,24.0
1979-07-14 17:49:56.160 ,1,1,0.,24.0,0.,24.0
1979-07-14 17:50:20.160 ,1,0,0.,24.0,0.,24.0
1979-07-14 17:50:44.160 ,2,1,0.,24.0,0.,24.0
1979-07-14 17:51:08.160 ,2,0,0.,24.0,0.,24.0
1979-07-14 17:51:32.160 ,3,1,0.,24.0,0.,24.0
1979-07-14 17:51:56.160 ,3,0,0.,24.0,0.,24.0
1979-07-14 17:52:20.160 ,4,1,0.,24.0,0.,24.0
1979-07-14 17:52:44.160 ,4,0,0.,24.0,0.,24.0
1979-07-14 17:53:08.160 ,5,1,0.,24.0,0.,24.0
1979-07-14 17:53:32.160 ,5,0,0.,24.0,0.,24.0
1979-07-14 17:53:56.160 ,6,1,0.,24.0,0.,24.0
1979-07-14 17:54:20.160 ,6,0,0.,24.0,0.,24.0
1979-07-14 17:54:44.160 ,7,0,0.,24.0,0.,24.0
1979-07-14 17:55:08.160 ,7,0,0.,24.0,0.,24.0
1979-07-14 17:55:32.160 ,3,1,0.,24.0,0.,24.0
1979-07-14 17:55:56.160 ,0,1,0.,24.0,0.,24.0
1979-07-14 17:56:20.160 ,4,1,0.,24.0,0.,24.0
1979-07-14 17:56:44.160 ,7,1,0.,24.0,0.,24.0
1979-07-14 17:57:08.160 ,3,1,0.,24.0,0.,24.0
1979-07-14 17:57:32.160 ,0,1,0.,24.0,0.,24.0
1979-07-14 17:57:56.160 ,4,1,0.,24.0,0.,24.0
1979-07-14 17:58:20.160 ,7,1,0.,24.0,0.,24.0
1979-07-14 17:58:44.160 ,3,1,0.,24.0,0.,24.0
1979-07-14 17:59:08.160 ,0,1,0.,24.0,0.,24.0
1979-07-14 17:59:32.160 ,4,1,0.,24.0,0.,24.0
1979-07-14 17:59:56.160 ,7,1,0.,24.0,0.,24.0
1979-07-14 18:00:20.160 ,3,1,0.,24.0,0.,24.0
